Location: Kapla
(46.2483°N, 15.0094°E)
Time: 21:03:33
(UTC+00:00)

Okean 3 - Pass Details

Date: 03 March 2021
Orbit: 576 x 600 km, 82.5° (Epoch: 20 April)

Event Time Altitude Azimuth Distance (km) Brightness Sun altitude
Rises 18:36:04 0° 354° (N) 2,833 7.2 -19.2°
Reaches altitude 10° 18:38:19 10° 359° (N) 1,931 6.2 -19.6°
Maximum altitude 18:42:30 55° 78° (ENE) 715 3.5 -20.3°
Enters shadow 18:42:44 55° 92° (E) 721 3.5 -20.3°
